User: anonymous   Login
Location: Unspecified
(0.0000°N, 0.0000°E)
Time: 19:03:08
(UTC+00:00)
Language:

SR - Orbit

View from above orbital plane
View from above orbital plane
View from above satellite
View from above satellite

Ground track
Ground track

The orbit data is extracted from the following two-line orbital elements,

1 00046U 60007B   15111.45572674  .00001448  00000-0  31868-3 0  9998
2 00046 066.6897 095.0049 0204685 095.1752 267.2749 14.48423352866143
Epoch (UTC): 21 April 2015 10:56:14
Eccentricity: 0.0204685
inclination: 66.6897°
perigee height: 585 km
apogee height: 876 km
right ascension of ascending node: 95.0049°
argument of perigee: 95.1752°
revolutions per day: 14.48423352
mean anomaly at epoch: 267.2749°
orbit number at epoch: 86614

The dashed part of the orbit path shows where the satellite is in the earth's shadow,  

DLR